Regional Weather Roundup
Issued by NWS

Home | Current Version | Previous Version | Text Only | Print | Product List | Glossary Off
Versions: 1 2 3 4 5 6 7 8 9 10 11 12 13 14 15 16 17 18 19 20 21 22 23 24 25 26 27 28 29 30 31 32 33 34 35 36 37 38 39 40 41 42 43 44 45 46 47 48 49 50

000
ASUS43 KFSD 292202
RWRSD

WEATHER ROUNDUP FOR SOUTH DAKOTA
NATIONAL WEATHER SERVICE SIOUX FALLS SD
500 PM CDT WED OCT 29 2014

NOTE: "FAIR" INDICATES FEW OR NO CLOUDS BELOW 12,000 FEET WITH NO
SIGNIFICANT WEATHER AND/OR OBSTRUCTIONS TO VISIBILITY.


SDZ001>005-009-010-012>017-292300-
NORTHWEST AND NORTH CENTRAL SOUTH DAKOTA

CITY           SKY/WX    TMP DP  RH WIND       PRES   REMARKS
BUFFALO          N/A     59  35  40 NW29G37   29.90R
FAITH            N/A     53  31  42 S7        29.95F
MOBRIDGE       CLOUDY    55  30  38 S5        29.94F
$$

SDZ012>016-024>037-041>051-057-063-072>074-292300-
SOUTHWEST AND SOUTH CENTRAL SOUTH DAKOTA

CITY           SKY/WX    TMP DP  RH WIND       PRES   REMARKS
RAPID CTY ARPT CLOUDY    60  35  39 N14       29.99R
PIERRE         CLOUDY    60  26  27 SE9       29.94F
CUSTER         CLOUDY    53  28  38 NW3       30.05R
ELLSWORTH AFB  CLOUDY    59  36  41 NW9       29.98S
PHILIP         PTSUNNY   62  26  25 N5        29.96R
PINE RIDGE     PTSUNNY   63  24  22 NW14      29.97R
SPEARFISH      FAIR      57  32  38 NW13G20   30.02S
WINNER         FAIR      64  22  20 S8        29.95F
$$

SDZ004>011-016>023-039-040-292300-
NORTHEAST SOUTH DAKOTA

CITY           SKY/WX    TMP DP  RH WIND       PRES   REMARKS
ABERDEEN       PTSUNNY   50  29  44 S9        30.00F
WATERTOWN      MOSUNNY   46  31  55 S9        30.02F
SISSETON         N/A     48  31  51 SW6       30.02F
$$

SDZ017-020-022-023-036>040-048>070-292300-
SOUTHEAST SOUTH DAKOTA

CITY           SKY/WX    TMP DP  RH WIND       PRES   REMARKS
SIOUX FALLS    MOSUNNY   50  31  48 S9        30.05F
HURON          MOSUNNY   53  30  41 S10       30.02S
CHAMBERLAIN    MOSUNNY   56  30  36 SE9       29.98S
MITCHELL       SUNNY     55  31  39 S13       30.03F
YANKTON        SUNNY     55  28  35 S12       30.04F
$$

ABBREVIATIONS USED IN REMARKS
   TC - TEMPERATURE IN CELSIUS
  WCI - WIND CHILL INDEX
   HX - HEAT INDEX
  VSB - VISIBILITY




USA.gov is the U.S. government's official web portal to all federal, state and local government web resources and services.